TimeCDT,TemperatureF,Dew PointF,Humidity,Sea Level PressureIn,VisibilityMPH,Wind Direction,Wind SpeedMPH,Gust SpeedMPH,PrecipitationIn,Events,Conditions,WindDirDegrees,DateUTC
12:53 AM,62.1,50.0,65,30.26,10.0,SE,5.8,-,N/A,,Clear,140,2011-10-07 05:53:00
1:53 AM,61.0,50.0,67,30.27,10.0,SSE,6.9,-,N/A,,Clear,160,2011-10-07 06:53:00
2:53 AM,60.1,50.0,69,30.27,10.0,SSE,5.8,-,N/A,,Clear,160,2011-10-07 07:53:00
3:53 AM,60.1,48.9,67,30.27,10.0,SE,5.8,-,N/A,,Clear,140,2011-10-07 08:53:00
4:53 AM,55.9,48.9,77,30.29,10.0,East,3.5,-,N/A,,Clear,100,2011-10-07 09:53:00
5:53 AM,55.0,48.0,77,30.32,10.0,Calm,Calm,-,N/A,,Clear,0,2011-10-07 10:53:00
6:53 AM,54.0,48.9,83,30.33,10.0,Calm,Calm,-,N/A,,Clear,0,2011-10-07 11:53:00
7:53 AM,55.0,50.0,83,30.36,9.0,Calm,Calm,-,N/A,,Clear,0,2011-10-07 12:53:00
8:53 AM,62.1,52.0,70,30.36,10.0,ESE,3.5,-,N/A,,Clear,110,2011-10-07 13:53:00
9:53 AM,69.1,52.0,54,30.36,10.0,South,5.8,-,N/A,,Clear,170,2011-10-07 14:53:00
10:53 AM,75.0,53.1,46,30.35,10.0,South,4.6,-,N/A,,Clear,170,2011-10-07 15:53:00
11:53 AM,79.0,53.1,40,30.33,10.0,SSW,8.1,-,N/A,,Clear,200,2011-10-07 16:53:00
12:53 PM,82.0,53.1,37,30.30,10.0,SSW,9.2,-,N/A,,Clear,200,2011-10-07 17:53:00
1:53 PM,82.9,52.0,34,30.27,10.0,SSE,11.5,-,N/A,,Clear,160,2011-10-07 18:53:00
2:53 PM,82.9,51.1,33,30.26,10.0,SSE,11.5,16.1,N/A,,Clear,150,2011-10-07 19:53:00
3:53 PM,82.9,50.0,32,30.26,10.0,SSE,11.5,-,N/A,,Clear,150,2011-10-07 20:53:00
4:53 PM,82.0,51.1,34,30.26,10.0,SSE,11.5,18.4,N/A,,Clear,160,2011-10-07 21:53:00
5:53 PM,79.0,51.1,38,30.26,10.0,SSE,4.6,-,N/A,,Clear,160,2011-10-07 22:53:00
6:53 PM,73.0,52.0,48,30.27,10.0,SE,6.9,-,N/A,,Clear,130,2011-10-07 23:53:00
7:53 PM,71.1,52.0,51,30.28,10.0,SE,5.8,-,N/A,,Clear,130,2011-10-08 00:53:00
8:53 PM,69.1,51.1,53,30.29,10.0,SE,5.8,-,N/A,,Clear,140,2011-10-08 01:53:00
9:53 PM,66.0,51.1,59,30.29,10.0,SE,5.8,-,N/A,,Clear,140,2011-10-08 02:53:00
10:53 PM,64.0,51.1,63,30.29,10.0,SE,3.5,-,N/A,,Clear,140,2011-10-08 03:53:00
11:53 PM,64.0,50.0,60,30.29,10.0,SSE,5.8,-,N/A,,Clear,150,2011-10-08 04:53:00